[[{"header":{"parameterUnit":"m.s-1","parameterCategory":1,"la1":30.2991,"la2":30.254,"lo1":-89.0895,"lo2":-89.0444,"dy":0.0017,"dx":0.0017,"nx":28,"ny":28,"refTime":"2025-05-26T09:00:00:Z","depth":0,"parameterNumber":2,"parameterNumberName":"U-component_of_WINDS"},"data":[0,0,0,0,0,0,0,0,0,0,0,0,0,0,0,0,0,0,0,0,0,0,0,0,0,0,0,0,0,0,0,0,0,0,0,0,0,0,0,0,0,0,0,0,0,0,0,0,0,0,0,0,0,0,0,0,0,0,-0.8205,-0.8204,0,-0.8143,-0.8142,-0.8141,-0.8125,-0.8125,-0.8126,-0.8126,-0.8058,-0.8056,-0.8054,0,0,0,0,0,0,0,0,0,0,0,0,0,-0.8305,-0.8303,-0.8205,-0.8204,-0.8203,-0.8143,-0.8142,-0.8141,-0.8125,-0.8125,-0.8126,-0.8126,-0.8059,-0.8056,-0.8053,0,0,0,0,0,0,0,0,0,0,0,0,0,-0.8254,-0.8303,-0.8205,-0.8188,-0.8186,-0.8143,-0.8142,-0.8141,-0.8125,-0.8125,-0.8126,-0.8126,-0.8059,-0.8056,-0.8053,-0.8021,0,0,-0.8043,-0.8042,0,0,0,0,0,0,0,0,-0.8257,-0.825,-0.8191,-0.8189,-0.8187,-0.8142,-0.8152,-0.8101,-0.8125,-0.8148,-0.8126,-0.8127,-0.8085,-0.808,-0.8067,-0.8018,-0.8015,-0.8043,-0.8041,-0.8039,-0.8039,0,0,0,0,0,0,0,-0.826,-0.8253,-0.818,-0.819,-0.8188,-0.8182,-0.8176,-0.8143,-0.8114,-0.8146,-0.8145,-0.8138,-0.8084,-0.807,-0.8065,-0.8014,-0.8043,-0.804,-0.8038,-0.8037,-0.7936,-0.7935,0,0,0,0,0,0,-0.8268,-0.8256,-0.8182,-0.8178,-0.8224,-0.818,-0.8172,-0.8156,-0.8114,-0.8109,-0.8137,-0.8137,-0.8075,-0.8069,-0.8063,-0.8022,-0.804,-0.8036,-0.8035,-0.7936,-0.7936,-0.7935,0,0,0,0,0,0,-0.827,-0.8261,-0.8185,-0.8217,-0.8207,-0.8178,-0.8159,-0.8154,-0.814,-0.8108,-0.8102,-0.8128,-0.8076,-0.8067,-0.8032,-0.8019,-0.8035,-0.8032,-0.7937,-0.7936,-0.7935,-0.7941,0,0,0,0,0,0,-0.8273,-0.8262,-0.8251,-0.8217,-0.8205,-0.8156,-0.8158,-0.8153,-0.8135,-0.8135,-0.8098,-0.8092,-0.8075,-0.8037,-0.8029,-0.8015,-0.8029,-0.7938,-0.7937,-0.7936,-0.7941,-0.794,-0.7939,0,0,0,0,0,-0.8276,-0.8254,-0.825,-0.8241,-0.819,-0.8156,-0.8149,-0.8131,-0.8134,-0.8122,-0.8101,-0.8094,-0.8023,-0.8033,-0.8024,-0.8009,-0.7939,-0.7937,-0.7936,-0.7942,-0.794,-0.7939,0,0,0,0,0,0,-0.8285,-0.8249,-0.8244,-0.8211,-0.8187,-0.8153,-0.8136,-0.8129,-0.8102,-0.8103,-0.808,-0.8072,-0.8038,-0.802,-0.8033,-0.7976,-0.798,-0.7977,-0.7989,-0.7987,-0.7985,-0.7989,-0.8027,0,0,0,0,0,-0.8283,-0.826,-0.8229,-0.8202,-0.819,-0.8166,-0.815,-0.8138,-0.8112,-0.8101,-0.8077,-0.8051,-0.8022,-0.8004,-0.7976,-0.794,-0.793,-0.7925,-0.7923,-0.7922,-0.7919,-0.7897,-0.7894,-0.7929,-0.7929,-0.7929,0,0,-0.8279,-0.8256,-0.8242,-0.8203,-0.8183,-0.8157,-0.8157,-0.813,-0.811,-0.8096,-0.8061,-0.8044,-0.8012,-0.7976,-0.7959,-0.796,-0.7907,-0.792,-0.792,-0.7916,-0.7895,-0.7892,-0.7889,-0.7928,-0.7928,-0.7929,0,0,-0.8257,-0.8238,-0.8213,-0.8194,-0.8164,-0.8148,-0.8142,-0.811,-0.8098,-0.8063,-0.8052,-0.8028,-0.798,-0.7958,-0.794,-0.7911,-0.7903,-0.7903,-0.7894,-0.7874,-0.7871,-0.7868,-0.7856,-0.7852,-0.79,-0.79,-0.79,0,-0.8254,-0.8217,-0.8201,-0.8175,-0.8157,-0.8146,-0.8119,-0.8101,-0.8063,-0.805,-0.8053,-0.7992,-0.797,-0.7928,-0.7921,-0.7908,-0.7899,-0.7906,-0.7873,-0.787,-0.7867,-0.7856,-0.7851,-0.79,-0.79,-0.79,-0.79,0,-0.8214,-0.8188,-0.8172,-0.8137,-0.8118,-0.8091,-0.807,-0.8053,-0.8043,-0.8027,-0.7991,-0.7965,-0.7931,-0.7921,-0.7911,-0.7877,-0.7879,-0.7878,-0.7881,-0.7864,-0.7853,-0.7848,-0.79,-0.79,-0.79,-0.79,0,0,-0.8194,-0.8152,-0.8146,-0.813,-0.8097,-0.8076,-0.8049,-0.8018,-0.8002,-0.7977,-0.7952,-0.7913,-0.7912,-0.7892,-0.7879,-0.7861,-0.7838,-0.7862,-0.7861,-0.7857,-0.7798,-0.7798,-0.7793,-0.7834,-0.7833,-0.7832,-0.78,0,-0.8166,-0.8119,-0.8105,-0.8064,-0.8039,-0.8029,-0.8005,-0.7982,-0.7966,-0.7941,-0.7923,-0.7895,-0.7896,-0.7884,-0.7866,-0.7845,-0.7826,-0.7848,-0.7809,-0.7807,-0.7815,-0.7787,-0.7786,-0.7757,-0.7796,-0.7795,-0.7794,0,-0.8128,-0.8103,-0.8061,-0.8031,-0.802,-0.7999,-0.7969,-0.7947,-0.792,-0.7909,-0.7888,-0.7877,-0.7847,-0.7855,-0.7812,-0.7827,-0.781,-0.7798,-0.7796,-0.779,-0.7798,-0.7778,-0.7748,-0.7742,-0.7788,-0.7788,-0.7789,0,-0.8115,-0.8072,-0.804,-0.8027,-0.7992,-0.7978,-0.7962,-0.7936,-0.7918,-0.7892,-0.7879,-0.785,-0.7833,-0.7809,-0.779,-0.7798,-0.7748,-0.7755,-0.7737,-0.7737,-0.7725,-0.7726,-0.7689,-0.7719,-0.7719,-0.7719,-0.7719,0,-0.8084,-0.8058,-0.8034,-0.8015,-0.7985,-0.7969,-0.7939,-0.7923,-0.79,-0.7876,-0.7865,-0.7843,-0.782,-0.7794,-0.7779,-0.7745,-0.7738,-0.7728,-0.7723,-0.7727,-0.7728,-0.7714,-0.7715,-0.7718,-0.7718,-0.7718,-0.7718,0,-0.8064,-0.8047,-0.8012,-0.7983,-0.7975,-0.7954,-0.7928,-0.7908,-0.7893,-0.7862,-0.7854,-0.7829,-0.7798,-0.7778,-0.7738,-0.7728,-0.769,-0.7688,-0.77,-0.7697,-0.768,-0.7681,-0.7632,-0.7624,-0.7661,-0.766,-0.766,0,-0.8044,-0.8024,-0.7993,-0.7977,-0.7962,-0.7937,-0.7919,-0.7902,-0.7884,-0.7852,-0.7835,-0.7804,-0.7778,-0.7729,-0.7706,-0.7676,-0.7671,-0.7656,-0.7666,-0.767,-0.7668,-0.7668,-0.7665,-0.7653,-0.7653,-0.7653,-0.7652,0,-0.8011,-0.8004,-0.7979,-0.7952,-0.7931,-0.7908,-0.7885,-0.7873,-0.7852,-0.7832,-0.7801,-0.7781,-0.7741,-0.7709,-0.7677,-0.7659,-0.7651,-0.765,-0.7644,-0.7646,-0.7653,-0.7647,-0.7693,-0.765,-0.7651,-0.7651,-0.7651,-0.7651,-0.7988,-0.797,-0.7945,-0.7918,-0.79,-0.7879,-0.7858,-0.7841,-0.7816,-0.7783,-0.7775,-0.7742,-0.7715,-0.7671,-0.7653,-0.7627,-0.7628,-0.762,-0.7617,-0.7614,-0.7613,-0.766,-0.7621,-0.7621,-0.7621,-0.7621,-0.7621,0,-0.7952,-0.7937,-0.7912,-0.7881,-0.786,-0.7857,-0.7832,-0.7813,-0.7785,-0.7762,-0.7737,-0.7701,-0.7671,-0.7647,-0.7615,-0.7598,-0.7594,-0.759,-0.759,-0.7586,-0.7615,-0.7622,-0.7595,-0.7595,-0.7595,-0.7595,-0.7595,-0.7595,-0.7931,-0.7899,-0.7889,-0.7848,-0.7832,-0.7801,-0.7786,-0.7766,-0.7748,-0.7709,-0.7684,-0.7669,-0.7645,-0.7612,-0.7584,-0.7577,-0.7565,-0.7562,-0.7554,-0.7581,-0.7584,-0.7587,-0.7593,-0.756,-0.756,-0.7527,-0.7527,-0.7526]},{"header":{"parameterUnit":"m.s-1","parameterCategory":1,"la1":30.2991,"la2":30.254,"lo1":-89.0895,"lo2":-89.0444,"dy":0.0017,"dx":0.0017,"nx":28,"ny":28,"refTime":"2025-05-26T09:00:00:Z","depth":0,"parameterNumber":3,"parameterNumberName":"V-component_of_WINDS"},"data":[0,0,0,0,0,0,0,0,0,0,0,0,0,0,0,0,0,0,0,0,0,0,0,0,0,0,0,0,0,0,0,0,0,0,0,0,0,0,0,0,0,0,0,0,0,0,0,0,0,0,0,0,0,0,0,0,0,0,2.9226,2.9226,0,2.9241,2.9241,2.9241,2.9129,2.9126,2.9123,2.912,2.9134,2.9137,2.9141,0,0,0,0,0,0,0,0,0,0,0,0,0,2.91,2.9103,2.9226,2.9226,2.9227,2.9241,2.9241,2.9241,2.913,2.9126,2.9122,2.9118,2.9133,2.9137,2.9141,0,0,0,0,0,0,0,0,0,0,0,0,0,2.9139,2.9104,2.9226,2.9173,2.9168,2.9241,2.9241,2.9241,2.913,2.9126,2.9121,2.9117,2.9132,2.9137,2.9142,2.9266,0,0,2.9157,2.9159,0,0,0,0,0,0,0,0,2.9137,2.9143,2.918,2.9176,2.9171,2.9178,2.9201,2.925,2.9132,2.9145,2.912,2.9114,2.9153,2.9156,2.9169,2.9267,2.9268,2.9157,2.916,2.9162,2.9164,0,0,0,0,0,0,0,2.9134,2.9142,2.9232,2.9181,2.9176,2.9147,2.9148,2.921,2.9175,2.9143,2.9135,2.9138,2.9149,2.9164,2.9168,2.9268,2.9157,2.9161,2.9164,2.9166,2.9468,2.9473,0,0,0,0,0,0,2.9139,2.9141,2.9231,2.9232,2.9142,2.9153,2.9154,2.9181,2.9174,2.9168,2.9142,2.9133,2.9158,2.9163,2.9168,2.9314,2.9162,2.9167,2.917,2.9463,2.9469,2.9474,0,0,0,0,0,0,2.9137,2.9148,2.9231,2.9184,2.9193,2.916,2.9192,2.9184,2.9198,2.9173,2.9166,2.9164,2.9154,2.9161,2.9242,2.9313,2.9169,2.9174,2.9457,2.9465,2.9472,2.9606,0,0,0,0,0,0,2.9133,2.9148,2.9196,2.9186,2.9196,2.9306,2.9196,2.9187,2.9207,2.9195,2.9192,2.9187,2.9151,2.9236,2.9248,2.9317,2.9178,2.9451,2.946,2.9469,2.9595,2.9617,2.9636,0,0,0,0,0,2.9129,2.9233,2.9199,2.921,2.9255,2.931,2.9315,2.9273,2.9213,2.9261,2.9244,2.9187,2.9303,2.9245,2.9257,2.9329,2.9446,2.9458,2.9469,2.9586,2.9613,2.9635,0,0,0,0,0,0,2.9252,2.9231,2.9193,2.9296,2.9306,2.9291,2.935,2.9303,2.9329,2.9317,2.9262,2.9262,2.9353,2.9349,2.9285,2.9449,2.9364,2.9378,2.9449,2.9474,2.9494,2.9494,2.9182,0,0,0,0,0,2.929,2.9338,2.9317,2.941,2.9417,2.9383,2.9405,2.9371,2.9379,2.9383,2.9372,2.9382,2.942,2.9446,2.948,2.9593,2.9591,2.9648,2.9669,2.9686,2.9699,2.9758,2.9784,2.9512,2.9512,2.9511,0,0,2.9372,2.9366,2.9399,2.9435,2.9438,2.9488,2.9387,2.9444,2.948,2.9391,2.9468,2.946,2.9467,2.9565,2.9607,2.9564,2.9774,2.97,2.9714,2.9718,2.9773,2.9799,2.9822,2.9519,2.9518,2.9517,0,0,2.9545,2.9546,2.9624,2.9629,2.9635,2.9611,2.963,2.9622,2.9614,2.969,2.9624,2.9665,2.9733,2.974,2.9753,2.9927,2.9876,2.9939,3.0047,3.0105,3.0127,3.0146,3.0208,3.0232,2.9953,2.9953,2.9953,0,2.9646,2.9719,2.967,2.9731,2.9748,2.9669,2.9747,2.9754,2.9772,2.9785,2.9736,2.9818,2.9817,2.9916,2.9958,2.9971,2.999,2.9941,3.0128,3.0146,3.0163,3.0222,3.0246,2.9961,2.996,2.9959,2.9958,0,2.9841,2.9893,2.9955,2.9973,2.9997,3.0067,3.0028,3.0058,3.0021,3.0002,3.008,3.0075,3.0107,3.0127,3.0092,3.022,3.0193,3.0137,3.0051,3.0197,3.0252,3.0275,2.9972,2.9969,2.9967,2.9965,0,0,3.0095,3.0084,3.0108,3.0115,3.0115,3.0154,3.0219,3.0249,3.0276,3.029,3.0344,3.0401,3.0349,3.0363,3.0328,3.0379,3.0518,3.0316,3.0315,3.0354,3.0659,3.0703,3.073,3.0483,3.0487,3.049,3.0659,0,3.0265,3.0377,3.0334,3.0449,3.0495,3.0419,3.0476,3.0482,3.0466,3.0502,3.0483,3.0526,3.0453,3.0461,3.0508,3.0491,3.0579,3.0478,3.0532,3.0535,3.0535,3.0759,3.0805,3.0965,3.068,3.0684,3.0686,0,3.0479,3.0502,3.0621,3.0612,3.063,3.0682,3.0706,3.0742,3.0747,3.0731,3.0747,3.07,3.0762,3.0675,3.0761,3.0693,3.0712,3.0707,3.0712,3.0717,3.0621,3.0771,3.1015,3.104,3.0719,3.0717,3.0714,0,3.0653,3.0713,3.0792,3.08,3.0792,3.083,3.0828,3.0828,3.0849,3.0869,3.0882,3.091,3.0926,3.0948,3.0909,3.0849,3.1001,3.091,3.099,3.0991,3.1027,3.1026,3.1279,3.1037,3.1037,3.1036,3.1036,0,3.0849,3.0925,3.087,3.0919,3.1002,3.0951,3.1034,3.1024,3.1024,3.1069,3.1004,3.1048,3.0994,3.1032,3.1002,3.1078,3.1085,3.1075,3.1066,3.1081,3.1083,3.1095,3.1083,3.1043,3.1041,3.104,3.1039,0,3.1058,3.1024,3.1106,3.109,3.1088,3.115,3.1137,3.1181,3.1159,3.1217,3.1228,3.1194,3.1235,3.1199,3.1239,3.1218,3.132,3.1294,3.1319,3.1312,3.1394,3.1388,3.1666,3.17,3.1435,3.1437,3.1439,0,3.1186,3.1243,3.1234,3.1259,3.1261,3.1303,3.1324,3.1275,3.1299,3.1308,3.1351,3.1387,3.1413,3.1483,3.1462,3.1492,3.1468,3.1563,3.1472,3.1486,3.1471,3.1469,3.1475,3.1583,3.1586,3.1588,3.159,0,3.1417,3.1397,3.1429,3.1456,3.1482,3.1501,3.1514,3.1539,3.1488,3.1518,3.156,3.1581,3.1621,3.1658,3.1681,3.1678,3.1627,3.1619,3.1639,3.1657,3.1669,3.1664,3.137,3.1613,3.1611,3.1609,3.1608,3.1607,3.1591,3.1637,3.1638,3.1676,3.168,3.1694,3.1735,3.1718,3.1751,3.1781,3.1749,3.18,3.1802,3.1827,3.1831,3.1869,3.183,3.1859,3.1867,3.1875,3.1888,3.1661,3.1873,3.1873,3.1872,3.1871,3.1871,0,3.1819,3.1815,3.185,3.1871,3.19,3.1848,3.1859,3.1888,3.1934,3.1939,3.1966,3.2014,3.2049,3.203,3.206,3.2095,3.2072,3.2104,3.2102,3.2102,3.1921,3.1901,3.2122,3.2122,3.2122,3.2122,3.2122,3.2122,3.1942,3.2018,3.1998,3.2076,3.2071,3.212,3.2131,3.2143,3.2148,3.2204,3.2232,3.2219,3.2215,3.2244,3.2274,3.2267,3.2282,3.2323,3.2309,3.214,3.2115,3.2092,3.2073,3.2326,3.2327,3.2487,3.2488,3.2489]}]]